Flag for U.S.A. Weather past 2 weeks in Augusta, Georgia, U.S.A.

Now
79 °F

Clear.


Feels Like: 82 °F
Forecast: 78 / 97 °F
Wind: 8 mph from Northwest

Location: Daniel Field

Current Time: Aug 23, 2014 at 7:59:17 AM

Latest Report: Aug 23, 2014 at 6:53 AM


Visibility: 10 mi

Pressure: 29.93 "Hg

Humidity: 74%

Dew point: 70 °F

Location of AugustaLocation

Historic Weather in Augusta — Graph

°F

Augusta temperature yesterday

Maximum temperature yesterday: 100 °F (at 3:53 PM)
Minimum temperature yesterday: 78 °F (at 6:53 AM)
Average temperature yesterday: 89 °F

Past Weeks' High & Low Weather Summary

 TemperatureHumidityPressure
High100 °F (Aug 22, 3:53 PM)100% (Aug 16, 6:53 AM)30.10 "Hg (Aug 16, 6:53 AM)
Low71 °F (Aug 14, 6:53 AM)29% (Aug 21, 2:53 PM)29.80 "Hg (Aug 12, 5:53 PM)
Average82 °F67%29.97 "Hg
* Reported Aug 8 6:53 AM — Aug 23 6:53 AM, Augusta, Weather by CustomWeather, © 2014

Note: Actual official high and low records may vary slightly from our data, if they occured in-between our weather recording intervals... More about our weather records

Advertising

Augusta weather history for previous 24 hours

 ConditionsComfort  
Time TempWeatherWind HumidityBarometerVisibility
6:53 AM
Aug 23
79 °FClear.8 mph74%29.93 "Hg10 mi
5:53 AM80 °FClear.6 mph71%29.91 "Hg10 mi
4:53 AM81 °FClear.7 mph69%29.91 "Hg10 mi
3:53 AM83 °FClear.7 mph65%29.92 "Hg10 mi
2:53 AM84 °FClear.7 mph63%29.93 "Hg10 mi
1:53 AM85 °FClear.7 mph61%29.95 "Hg10 mi
12:53 AM86 °FClear.5 mph59%29.96 "Hg10 mi
11:53 PM
Aug 22
88 °FClear.5 mph55%29.96 "Hg10 mi
10:53 PM89 °FClear.No wind53%29.96 "Hg10 mi
9:53 PM91 °FClear.No wind49%29.95 "Hg10 mi
8:53 PM91 °FSunny.3 mph49%29.95 "Hg10 mi
7:53 PM94 °FSunny.3 mph43%29.95 "Hg10 mi
6:53 PM97 °FSunny.6 mph39%29.94 "Hg10 mi
5:53 PM99 °FSunny.5 mph34%29.94 "Hg10 mi
4:53 PM98 °FPassing clouds.5 mph36%29.96 "Hg10 mi
3:53 PM100 °FSunny.7 mph33%29.97 "Hg10 mi
2:53 PM98 °FPassing clouds.9 mph38%30.00 "Hg10 mi
1:53 PM96 °FScattered clouds.6 mph41%30.02 "Hg10 mi
12:53 PM96 °FSunny.9 mph41%30.03 "Hg10 mi
11:53 AM93 °FSunny.6 mph49%30.05 "Hg10 mi
10:53 AM91 °FSunny.9 mph54%30.06 "Hg10 mi
9:53 AM89 °FSunny.9 mph55%30.06 "Hg10 mi
8:53 AM84 °FSunny.8 mph65%30.06 "Hg10 mi
7:53 AM79 °FClear.6 mph74%30.05 "Hg10 mi
Weather by CustomWeather, © 2014

See weather overviewHow to use our weather pages